This is the latest recevied weather packets stored in our database for station/object WB4MOZ-3. If no packets are shown the sender has not sent any weather packets the latest 1 day(s).
| Time | Temp. | Humidity | Pressure | Rain* | Wind** | Luminosity | Snow |
|---|---|---|---|---|---|---|---|
| 1778026368 | 26.11° C | 72% | 1013.1 hPa | 0 mm | 2.68 m/s, 90° | - | - |
| 1778026068 | 26.67° C | 72% | 1013.1 hPa | 0 mm | 3.13 m/s, 74° | - | - |
| 1778025769 | 26.67° C | 71% | 1013 hPa | 0 mm | 2.24 m/s, 89° | - | - |
| 1778025468 | 26.67° C | 72% | 1012.9 hPa | 0 mm | 2.24 m/s, 36° | - | - |
| 1778025168 | 26.67° C | 73% | 1012.8 hPa | 0 mm | 2.24 m/s, 50° | - | - |
| 1778024568 | 26.67° C | 72% | 1012.8 hPa | 0 mm | 1.34 m/s, 63° | - | - |
| 1778024268 | 26.67° C | 72% | 1012.8 hPa | 0 mm | 2.68 m/s, 39° | - | - |
| 1778023968 | 26.67° C | 71% | 1012.7 hPa | 0 mm | 2.68 m/s, 56° | - | - |
| 1778023668 | 26.67° C | 70% | 1012.7 hPa | 0 mm | 3.13 m/s, 49° | - | - |
| 1778023368 | 26.67° C | 70% | 1012.6 hPa | 0 mm | 3.58 m/s, 84° | - | - |
| 1778023068 | 27.22° C | 70% | 1012.4 hPa | 0 mm | 2.68 m/s, 91° | - | - |
| 1778022768 | 27.22° C | 69% | 1012.6 hPa | 0 mm | 2.68 m/s, 50° | - | - |
| 1778022468 | 27.22° C | 69% | 1012.7 hPa | 0 mm | 2.68 m/s, 60° | - | - |
| 1778021868 | 27.22° C | 68% | 1012.7 hPa | 0 mm | 2.24 m/s, 57° | - | - |
| 1778021568 | 27.22° C | 69% | 1012.7 hPa | 0 mm | 2.68 m/s, 60° | - | - |
| 1778021268 | 27.22° C | 68% | 1012.6 hPa | 0 mm | 3.13 m/s, 44° | - | - |
| 1778020969 | 27.22° C | 68% | 1012.6 hPa | 0 mm | 3.58 m/s, 78° | - | - |
| 1778020668 | 27.78° C | 68% | 1012.5 hPa | 0 mm | 3.58 m/s, 63° | - | - |
| 1778020368 | 27.78° C | 68% | 1012.5 hPa | 0 mm | 3.58 m/s, 81° | - | - |
| 1778020068 | 27.78° C | 68% | 1012.6 hPa | 0 mm | 3.13 m/s, 37° | - | - |
| 1778019768 | 27.78° C | 68% | 1012.5 hPa | 0 mm | 2.24 m/s, 47° | - | - |
| 1778019168 | 27.78° C | 67% | 1012.4 hPa | 0 mm | 2.24 m/s, 36° | - | - |
| 1778018568 | 27.78° C | 67% | 1012.4 hPa | 0 mm | 2.24 m/s, 66° | - | - |
| 1778018268 | 28.33° C | 66% | 1012.3 hPa | 0 mm | 3.13 m/s, 83° | - | - |
| 1778017968 | 28.33° C | 64% | 1012.3 hPa | 0 mm | 3.13 m/s, 69° | - | - |
* Rain latest hour (hover to see other rain measurements)
** Current wind speed in m/s (hover to see current wind gust speed)